Location: Alberta Star Party
(51.6612°N, 112.9089°W)
Time: 22:25:49
(UTC-06:00)

Amateur Radio Satellites - All Passes

Search period start: 01 September 2014 21:55
Search period end: 02 September 2014 21:55
Location: Alberta Star Party, 51.6612°N, 112.9089°W

Satellite Date Start Highest point End Downlink Frequencies (MHz)
Time Altitude Azimuth
Sapphire 01 Sep 22:17:03 22:20:20 16° 2° (N) 22:23:37 437.095 MHz 1200 baud AX-25 AFSK
Saudisat 1A 01 Sep 22:23:48 22:26:51 19° 114° (ESE) 22:29:55 436.775 MHz
FUNcube-1 01 Sep 22:25:13 22:29:16 47° 69° (ENE) 22:33:26 145.950 - 145.970 MHz USB
HO-68 01 Sep 22:28:37 22:35:16 41° 263° (W) 22:41:59 435.675 MHz FM
MaSat-1 01 Sep 22:39:40 22:44:27 81° 239° (WSW) 22:48:36 437.345 MHz
PCSat 01 Sep 22:46:47 22:50:18 17° 11° (N) 22:53:49 145.825 MHz
KITSAT 1 01 Sep 23:21:50 23:28:49 34° 110° (ESE) 23:35:49 435.175 FM
UKube-1 01 Sep 23:28:01 23:30:25 15° 272° (W) 23:32:50 145.840 MHz, 145.915 MHz
Oscar 11 01 Sep 23:30:39 23:33:54 20° 269° (W) 23:37:11 145.825 FM, Beacon 2401.500 USB
Sapphire 02 Sep 00:01:11 00:05:41 25° 28° (NNE) 00:10:10 437.095 MHz 1200 baud AX-25 AFSK
Saudisat 1A 02 Sep 00:01:31 00:05:56 79° 314° (NW) 00:10:24 436.775 MHz
FUNcube-1 02 Sep 00:02:36 00:05:56 22° 269° (W) 00:09:21 145.950 - 145.970 MHz USB
AO-40 02 Sep 00:04:37 02:59:02 21° 136° (SE) 04:19:32 Beacon 2401.320
MaSat-1 02 Sep 00:18:44 00:20:28 12° 261° (W) 00:22:07 437.345 MHz
PCSat 02 Sep 00:30:24 00:35:22 34° 36° (NE) 00:40:18 145.825 MHz
Oscar 10/S400 02 Sep 01:04:08 01:46:36 43° 197° (SSW) 08:07:06 145.825 - 145.975 CW/USB, Beacon 145.810 USB
KITSAT 1 02 Sep 01:15:30 01:23:37 78° 312° (NW) 01:31:46 435.175 FM
Saudisat 1A 02 Sep 01:42:37 01:46:11 23° 336° (NNW) 01:49:47 436.775 MHz
Sapphire 02 Sep 01:44:27 01:49:56 80° 51° (NE) 01:55:22 437.095 MHz 1200 baud AX-25 AFSK
PCSat 02 Sep 02:13:47 02:19:10 65° 238° (WSW) 02:24:32 145.825 MHz
Oscar 19 02 Sep 02:17:36 02:21:51 25° 92° (E) 02:26:05 437.125 CW, 437.150 USB
AO-Echo 02 Sep 02:26:49 02:29:17 14° 87° (E) 02:31:45 ?
Oscar 16 02 Sep 02:52:30 02:57:33 47° 99° (E) 03:02:33 437.025 USB, Beacon 2401.1428
ITAMSAT 1 02 Sep 02:55:34 02:59:45 24° 92° (E) 03:03:56 435.822 SSB
Uribyol 2 02 Sep 03:04:40 03:09:13 30° 94° (E) 03:13:46 436.500 FM
SO-50 02 Sep 03:05:14 03:07:11 13° 109° (ESE) 03:09:10 436.795 FM
KITSAT 1 02 Sep 03:12:58 03:20:17 36° 339° (NNW) 03:27:37 435.175 FM
TMSAT-1 02 Sep 03:18:24 03:21:23 15° 86° (E) 03:24:22 436.925 FM
JAS-1B 02 Sep 03:21:21 03:27:44 39° 93° (E) 03:33:18 435.800 - 435.900 CW/SSB
Saudisat 1A 02 Sep 03:24:34 03:27:15 16° 360° (N) 03:29:56 436.775 MHz
AO-27 02 Sep 03:24:52 03:29:48 41° 98° (E) 03:34:41 436.795 MHz FM
Sapphire 02 Sep 03:28:44 03:32:47 22° 252° (WSW) 03:36:50 437.095 MHz 1200 baud AX-25 AFSK
Oscar 19 02 Sep 03:56:27 04:01:35 58° 291° (WNW) 04:06:40 437.125 CW, 437.150 USB
PCSat 02 Sep 03:59:31 04:01:34 12° 258° (WSW) 04:03:36 145.825 MHz
OPAL 02 Sep 04:00:01 04:04:43 38° 61° (ENE) 04:09:30 ?
AO-Echo 02 Sep 04:04:02 04:08:46 87° 286° (WNW) 04:13:30 ?
Gurwin Techsat 1B 02 Sep 04:06:58 04:12:06 46° 98° (E) 04:17:11 435.225 FM
Oscar 16 02 Sep 04:32:11 04:36:45 32° 299° (WNW) 04:41:19 437.025 USB, Beacon 2401.1428
ITAMSAT 1 02 Sep 04:34:32 04:39:39 60° 291° (WNW) 04:44:44 435.822 SSB
SO-50 02 Sep 04:42:26 04:46:56 74° 129° (SE) 04:51:34 436.795 FM
Uribyol 2 02 Sep 04:43:56 04:48:55 48° 294° (WNW) 04:53:54 436.500 FM
UOSAT-12 02 Sep 04:50:53 04:52:48 12° 109° (ESE) 04:54:44 437.025 FM, 437.400 FM
TMSAT-1 02 Sep 04:56:47 05:02:08 85° 105° (ESE) 05:07:27 436.925 FM
Uosat F 02 Sep 04:57:13 05:01:00 21° 91° (E) 05:04:45 435.120 FM
AO-27 02 Sep 05:04:34 05:09:17 36° 297° (WNW) 05:13:58 436.795 MHz FM
Saudisat 1A 02 Sep 05:04:44 05:08:19 23° 24° (NNE) 05:11:53 436.775 MHz
KITSAT 1 02 Sep 05:11:11 05:18:08 30° 8° (N) 05:25:05 435.175 FM
JAS-1B 02 Sep 05:11:57 05:18:38 47° 299° (WNW) 05:24:23 435.800 - 435.900 CW/SSB
AO-7 02 Sep 05:24:56 05:32:43 42° 98° (E) 05:40:25 29.400 - 29.500 MHz
Oscar 19 02 Sep 05:37:42 05:39:55 13° 312° (NW) 05:42:08 437.125 CW, 437.150 USB
OPAL 02 Sep 05:38:51 05:43:36 39° 260° (W) 05:48:28 ?
AO-Echo 02 Sep 05:44:10 05:46:54 16° 306° (NW) 05:49:39 ?
Gurwin Techsat 1B 02 Sep 05:47:13 05:51:57 33° 298° (WNW) 05:56:39 435.225 FM
STRAND 1 02 Sep 05:49:15 05:52:58 21° 56° (NE) 05:56:43 ?
JAS-2 02 Sep 06:13:46 06:16:45 15° 87° (E) 06:19:48 435.800 - 435.900 CW/SSB, 435.910 FM
ITAMSAT 1 02 Sep 06:15:53 06:18:10 13° 312° (NW) 06:20:27 435.822 SSB
SO-50 02 Sep 06:23:56 06:27:57 29° 331° (NNW) 06:32:04 436.795 FM
Uribyol 2 02 Sep 06:26:02 06:27:16 11° 314° (NW) 06:28:30 436.500 FM
UOSAT-12 02 Sep 06:27:29 06:32:06 70° 128° (SE) 06:36:50 437.025 FM, 437.400 FM
Uosat F 02 Sep 06:35:17 06:40:15 66° 290° (WNW) 06:45:12 435.120 FM
TMSAT-1 02 Sep 06:37:42 06:41:27 20° 305° (NW) 06:45:11 436.925 FM
Saudisat 1A 02 Sep 06:44:07 06:48:34 78° 47° (NE) 06:52:59 436.775 MHz
JAS-1B 02 Sep 07:04:10 07:07:22 14° 325° (NW) 07:10:22 435.800 - 435.900 CW/SSB
KITSAT 1 02 Sep 07:07:40 07:15:32 50° 36° (NE) 07:23:21 435.175 FM
AO-7 02 Sep 07:17:45 07:25:52 60° 300° (WNW) 07:33:55 29.400 - 29.500 MHz
STRAND 1 02 Sep 07:26:33 07:31:39 77° 256° (WSW) 07:36:47 ?
Hamsat 02 Sep 07:33:18 07:37:40 69° 102° (ESE) 07:41:59 145.90 MHz
RS-15 02 Sep 07:36:12 07:45:57 39° 110° (ESE) 07:55:35 29.354 - 29.394 USB, Beacon 29.352 USB
JAS-2 02 Sep 07:57:23 08:02:38 89° 106° (ESE) 08:08:14 435.800 - 435.900 CW/SSB, 435.910 FM
SO-50 02 Sep 08:06:51 08:09:56 17° 356° (N) 08:13:04 436.795 FM
UOSAT-12 02 Sep 08:08:28 08:12:40 31° 330° (NNW) 08:16:55 437.025 FM, 437.400 FM
SO-67 02 Sep 08:09:49 08:12:48 26° 95° (E) 08:15:46 435.3500 MHz FM
Uosat F 02 Sep 08:15:46 08:18:10 14° 310° (NW) 08:20:33 435.120 FM
Saudisat 1A 02 Sep 08:24:34 08:27:39 19° 246° (WSW) 08:30:43 436.775 MHz
KITSAT 1 02 Sep 09:03:19 09:11:15 62° 240° (WSW) 09:19:08 435.175 FM
STRAND 1 02 Sep 09:09:34 09:11:44 13° 275° (W) 09:13:56 ?
Hamsat 02 Sep 09:10:13 09:13:10 18° 301° (WNW) 09:16:07 145.90 MHz
AO-7 02 Sep 09:11:25 09:17:07 21° 323° (NW) 09:22:49 29.400 - 29.500 MHz
SO-67 02 Sep 09:42:51 09:45:50 27° 293° (WNW) 09:48:48 435.3500 MHz FM
JAS-2 02 Sep 09:43:44 09:47:12 18° 306° (NW) 09:50:45 435.800 - 435.900 CW/SSB, 435.910 FM
RS-15 02 Sep 09:46:23 09:57:25 80° 315° (NW) 10:08:28 29.354 - 29.394 USB, Beacon 29.352 USB
SO-50 02 Sep 09:48:23 09:52:05 22° 20° (NNE) 09:55:51 436.795 FM
HO-68 02 Sep 09:49:44 09:56:01 32° 93° (E) 10:02:16 435.675 MHz FM
UOSAT-12 02 Sep 09:51:00 09:54:12 18° 354° (N) 09:57:25 437.025 FM, 437.400 FM
ISS 02 Sep 10:57:15 11:00:01 24° 147° (SSE) 11:02:47 145.800 FM
KITSAT 1 02 Sep 11:00:50 11:05:01 15° 262° (W) 11:09:13 435.175 FM
AO-7 02 Sep 11:05:41 11:06:49 10° 350° (N) 11:07:57 29.400 - 29.500 MHz
UKube-1 02 Sep 11:08:17 11:12:38 67° 103° (ESE) 11:16:58 145.840 MHz, 145.915 MHz
Oscar 11 02 Sep 11:11:23 11:15:41 52° 100° (E) 11:19:57 145.825 FM, Beacon 2401.500 USB
SO-50 02 Sep 11:28:48 11:33:32 61° 43° (NE) 11:38:19 436.795 FM
UOSAT-12 02 Sep 11:32:17 11:35:58 22° 18° (NNE) 11:39:37 437.025 FM, 437.400 FM
HO-68 02 Sep 11:37:09 11:44:15 67° 294° (WNW) 11:51:19 435.675 MHz FM
FUNcube-1 02 Sep 11:44:48 11:49:14 49° 99° (E) 11:53:42 145.950 - 145.970 MHz USB
RS-15 02 Sep 12:01:09 12:11:30 45° 346° (NNW) 12:21:58 29.354 - 29.394 USB, Beacon 29.352 USB
Oscar 19 02 Sep 12:04:03 12:06:19 13° 48° (NE) 12:08:35 437.125 CW, 437.150 USB
JAS-1B 02 Sep 12:22:44 12:28:57 22° 46° (NE) 12:34:35 435.800 - 435.900 CW/SSB
ISS 02 Sep 12:33:06 12:36:25 73° 166° (SSE) 12:39:45 145.800 FM
MaSat-1 02 Sep 12:33:50 12:37:06 17° 102° (ESE) 12:40:25 437.345 MHz
Oscar 16 02 Sep 12:37:20 12:41:15 22° 56° (ENE) 12:45:11 437.025 USB, Beacon 2401.1428
ITAMSAT 1 02 Sep 12:42:56 12:45:17 13° 49° (NE) 12:47:38 435.822 SSB
UKube-1 02 Sep 12:45:23 12:48:25 19° 302° (WNW) 12:51:27 145.840 MHz, 145.915 MHz
Oscar 11 02 Sep 12:48:09 12:51:36 23° 299° (WNW) 12:55:01 145.825 FM, Beacon 2401.500 USB
Uribyol 2 02 Sep 12:51:19 12:54:19 16° 51° (NE) 12:57:19 436.500 FM
AO-7 02 Sep 12:53:08 12:56:00 12° 18° (NNE) 12:58:51 29.400 - 29.500 MHz
SO-50 02 Sep 13:09:48 13:13:51 28° 242° (WSW) 13:17:56 436.795 FM
AO-27 02 Sep 13:10:58 13:14:44 21° 55° (NE) 13:18:30 436.795 MHz FM
UOSAT-12 02 Sep 13:12:22 13:17:04 56° 41° (NE) 13:21:42 437.025 FM, 437.400 FM
FUNcube-1 02 Sep 13:21:41 13:25:24 26° 298° (WNW) 13:29:09 145.950 - 145.970 MHz USB
HO-68 02 Sep 13:25:55 13:30:47 20° 317° (NW) 13:35:39 435.675 MHz FM
Oscar 19 02 Sep 13:39:35 13:44:40 59° 69° (ENE) 13:49:48 437.125 CW, 437.150 USB
AO-Echo 02 Sep 13:44:18 13:48:43 34° 64° (ENE) 13:53:03 ?
Gurwin Techsat 1B 02 Sep 13:55:21 13:59:27 23° 57° (ENE) 14:03:34 435.225 FM
MaSat-1 02 Sep 14:08:21 14:13:26 89° 122° (ESE) 14:18:37 437.345 MHz
JAS-1B 02 Sep 14:08:57 14:18:15 63° 66° (ENE) 14:26:18 435.800 - 435.900 CW/SSB
ISS 02 Sep 14:09:49 14:13:10 88° 186° (S) 14:16:30 145.800 FM
Oscar 16 02 Sep 14:14:57 14:20:07 73° 256° (WSW) 14:25:21 437.025 USB, Beacon 2401.1428
RS-15 02 Sep 14:16:15 14:26:44 47° 19° (NNE) 14:37:28 29.354 - 29.394 USB, Beacon 29.352 USB
ITAMSAT 1 02 Sep 14:18:44 14:23:49 61° 69° (ENE) 14:28:56 435.822 SSB
Uribyol 2 02 Sep 14:27:51 14:33:00 75° 71° (ENE) 14:38:11 436.500 FM
AO-7 02 Sep 14:39:24 14:46:07 29° 44° (NE) 14:52:49 29.400 - 29.500 MHz
Uosat F 02 Sep 14:41:23 14:42:35 11° 47° (NE) 14:43:47 435.120 FM
TMSAT-1 02 Sep 14:43:53 14:48:45 39° 64° (ENE) 14:53:39 436.925 FM
AO-27 02 Sep 14:48:31 14:53:42 79° 255° (WSW) 14:58:56 436.795 MHz FM
UOSAT-12 02 Sep 14:52:53 14:57:01 30° 242° (WSW) 15:01:05 437.025 FM, 437.400 FM
Oscar 19 02 Sep 15:20:14 15:24:24 24° 269° (W) 15:28:37 437.125 CW, 437.150 USB
AO-Echo 02 Sep 15:22:51 15:27:29 39° 263° (W) 15:32:01 ?
Gurwin Techsat 1B 02 Sep 15:33:39 15:38:57 72° 257° (WSW) 15:44:17 435.225 FM
ISS 02 Sep 15:46:36 15:49:45 39° 206° (SSW) 15:52:53 145.800 FM
MaSat-1 02 Sep 15:46:55 15:51:07 25° 323° (NW) 15:55:17 437.345 MHz
Oscar 16 02 Sep 15:58:22 16:00:26 12° 276° (W) 16:02:30 437.025 USB, Beacon 2401.1428
ITAMSAT 1 02 Sep 15:59:38 16:03:44 23° 269° (W) 16:07:52 435.822 SSB
JAS-1B 02 Sep 16:00:10 16:09:03 42° 265° (W) 16:16:56 435.800 - 435.900 CW/SSB
Uribyol 2 02 Sep 16:09:28 16:13:04 19° 271° (W) 16:16:42 436.500 FM
Uosat F 02 Sep 16:15:28 16:20:18 51° 67° (ENE) 16:25:09 435.120 FM
TMSAT-1 02 Sep 16:23:47 16:28:42 39° 264° (W) 16:33:40 436.925 FM
RS-15 02 Sep 16:29:24 16:40:29 89° 49° (NE) 16:51:57 29.354 - 29.394 USB, Beacon 29.352 USB
AO-7 02 Sep 16:29:35 16:37:56 84° 67° (ENE) 16:46:18 29.400 - 29.500 MHz
AO-27 02 Sep 16:31:37 16:34:06 13° 275° (W) 16:36:35 436.795 MHz FM
Sapphire 02 Sep 16:32:52 16:36:59 23° 109° (ESE) 16:41:08 437.095 MHz 1200 baud AX-25 AFSK
JAS-2 02 Sep 16:33:33 16:36:31 15° 51° (NE) 16:39:24 435.800 - 435.900 CW/SSB, 435.910 FM
Hamsat 02 Sep 16:58:03 17:00:35 15° 57° (ENE) 17:03:08 145.90 MHz
PCSat 02 Sep 17:00:53 17:05:51 38° 115° (ESE) 17:10:51 145.825 MHz
Gurwin Techsat 1B 02 Sep 17:17:50 17:19:55 12° 277° (W) 17:22:00 435.225 FM
MaSat-1 02 Sep 17:28:20 17:29:53 11° 346° (NNW) 17:31:25 437.345 MHz
OPAL 02 Sep 17:42:53 17:47:42 36° 98° (E) 17:52:27 ?
Uosat F 02 Sep 17:55:07 17:59:21 27° 266° (W) 18:03:37 435.120 FM
Sapphire 02 Sep 18:14:28 18:19:53 77° 309° (NW) 18:25:21 437.095 MHz 1200 baud AX-25 AFSK
JAS-2 02 Sep 18:15:06 18:20:53 71° 71° (ENE) 18:26:10 435.800 - 435.900 CW/SSB, 435.910 FM
AO-7 02 Sep 18:24:52 18:31:41 28° 269° (W) 18:38:33 29.400 - 29.500 MHz
Hamsat 02 Sep 18:31:36 18:35:57 86° 256° (WSW) 18:40:22 145.90 MHz
HO-68 02 Sep 18:41:15 18:44:35 14° 35° (NE) 18:47:56 435.675 MHz FM
RS-15 02 Sep 18:42:23 18:51:38 33° 254° (WSW) 19:01:12 29.354 - 29.394 USB, Beacon 29.352 USB
PCSat 02 Sep 18:43:56 18:49:12 50° 316° (NW) 18:54:30 145.825 MHz
SO-67 02 Sep 18:48:16 18:51:01 22° 65° (ENE) 18:53:47 435.3500 MHz FM
MaSat-1 02 Sep 19:08:11 19:09:10 11° 11° (N) 19:10:09 437.345 MHz
OPAL 02 Sep 19:21:44 19:26:40 43° 298° (WNW) 19:31:33 ?
STRAND 1 02 Sep 19:32:07 19:36:16 24° 92° (E) 19:40:24 ?
Sapphire 02 Sep 19:59:45 20:04:11 25° 332° (NNW) 20:08:38 437.095 MHz 1200 baud AX-25 AFSK
JAS-2 02 Sep 20:02:15 20:06:31 21° 269° (W) 20:10:32 435.800 - 435.900 CW/SSB, 435.910 FM
Hamsat 02 Sep 20:11:04 20:12:38 12° 275° (W) 20:14:12 145.90 MHz
SO-67 02 Sep 20:20:47 20:23:57 32° 264° (W) 20:27:08 435.3500 MHz FM
HO-68 02 Sep 20:23:57 20:30:35 43° 58° (ENE) 20:37:14 435.675 MHz FM
PCSat 02 Sep 20:29:57 20:33:53 20° 341° (NNW) 20:37:51 145.825 MHz
UKube-1 02 Sep 20:34:37 20:37:33 18° 57° (ENE) 20:40:29 145.840 MHz, 145.915 MHz
Oscar 11 02 Sep 20:38:15 20:40:19 13° 54° (NE) 20:42:24 145.825 FM, Beacon 2401.500 USB
MaSat-1 02 Sep 20:44:15 20:48:02 22° 35° (NE) 20:51:30 437.345 MHz
OPAL 02 Sep 21:03:27 21:04:19 10° 319° (NW) 21:05:11 ?
STRAND 1 02 Sep 21:10:49 21:15:50 58° 291° (WNW) 21:20:50 ?
FUNcube-1 02 Sep 21:13:24 21:15:08 12° 53° (NE) 21:16:52 145.950 - 145.970 MHz USB
Sapphire 02 Sep 21:46:16 21:49:33 16° 358° (N) 21:52:49 437.095 MHz 1200 baud AX-25 AFSK
